Probability
0 0 0 0 0 0 0 0 0 0 0 0 0 1 2 5 11 23 41 58 67 72 78 80 82 86 92 95 96 95 92 87 84 78 71 69 66 53 41 39 38 32 24 19
0 0 0 0 0 0 0 0 0 0 0 0 0 1 4 8 16 28 44 57 66 72 77 80 82 85 89 92 93 92 89 84 79 75 67 64 61 50 38 36 39 35 26 21
0 0 0 0 0 0 0 0 0 0 0 0 0 1 5 13 24 35 44 54 62 67 70 75 77 79 81 85 88 88 88 84 78 74 67 63 61 52 41 43 49 46 33 24
0 0 0 0 0 0 0 0 0 0 0 0 0 0 6 19 33 39 45 51 55 58 62 65 69 73 76 80 83 88 90 87 83 79 75 72 68 60 55 59 65 59 44 33
0 0 0 0 0 0 0 0 0 0 0 0 0 1 8 24 39 44 47 49 49 52 56 58 63 70 73 75 81 87 89 89 88 87 85 82 77 70 68 70 73 69 58 52
0 0 0 0 0 0 0 0 0 0 0 0 0 1 9 24 39 46 47 45 43 45 48 50 54 61 64 66 72 79 84 86 87 87 88 87 84 80 76 76 75 72 68 67
0 0 0 0 0 0 0 0 0 0 0 0 0 3 13 25 36 42 41 37 31 30 34 36 39 42 46 50 56 63 70 75 78 79 82 85 84 83 82 80 77 73 70 71
0 0 0 0 0 0 0 0 0 0 0 0 2 9 21 27 28 29 29 24 19 18 19 21 22 24 29 33 37 42 50 58 62 64 69 73 75 77 79 81 79 73 69 68
0 0 0 0 0 0 0 0 0 0 0 0 3 13 24 26 20 17 17 16 14 12 11 10 9 11 14 19 21 24 32 39 40 40 43 49 53 56 60 65 68 68 66 63
0 0 0 0 0 0 0 0 0 0 0 0 2 11 25 30 25 17 13 13 12 9 7 5 4 4 6 8 9 12 18 21 19 17 19 23 26 30 34 39 45 52 57 58
0 0 0 0 0 0 0 0 0 0 0 0 1 12 31 40 32 19 10 9 8 6 5 4 3 3 2 2 3 6 8 9 8 7 9 11 13 14 17 20 25 33 42 46
0 0 0 0 0 0 0 0 0 0 0 0 3 17 34 37 26 13 7 7 6 5 4 4 3 2 1 0 1 2 3 3 3 4 6 7 9 11 13 13 15 19 24 27
0 0 0 0 0 0 0 0 0 0 0 0 4 15 26 25 16 10 7 5 5 3 2 2 2 1 0 0 0 0 1 1 1 1 2 4 7 10 12 11 10 11 13 14
0 0 0 0 0 0 0 0 1 2 4 4 6 13 18 16 12 10 6 4 2 1 0 1 2 1 1 1 1 1 1 1 0 0 1 3 6 9 10 8 7 7 7 7
0 0 0 0 0 0 1 2 4 7 9 9 9 12 12 10 8 6 4 2 1 0 0 0 1 1 2 3 2 2 3 3 2 2 2 3 4 7 7 5 4 4 4 3
0 0 0 0 0 0 1 4 7 9 10 9 8 8 7 5 4 2 1 0 0 0 0 0 0 2 3 4 3 3 5 7 8 6 4 4 3 4 4 3 2 2 2 1
0 0 0 0 0 0 1 2 4 6 5 5 4 3 2 1 1 0 0 0 0 0 0 0 0 2 4 4 4 4 4 8 10 8 7 6 4 3 2 1 1 2 1 1
0 0 0 0 0 0 1 1 1 1 1 2 2 1 0 0 0 0 0 0 0 0 0 0 0 1 2 2 3 3 4 5 6 6 6 5 3 2 1 1 2 2 2 1
0 0 0 0 0 1 2 1 0 0 0 1 1 0 0 0 0 0 0 0 0 0 0 0 0 0 1 4 6 4 3 2 2 2 2 2 1 0 0 1 2 2 2 1
0 0 0 0 0 1 2 1 0 0 0 0 0 0 0 0 0 0 0 0 0 0 0 0 0 0 3 9 11 6 2 1 1 0 0 0 0 0 1 2 2 2 1 0
0 0 0 0 1 2 1 0 0 0 0 0 0 0 0 0 0 0 0 0 0 0 0 0 0 2 6 11 11 5 1 1 0 0 0 0 0 1 1 3 3 1 0 0
0 0 0 0 1 1 1 0 0 0 0 0 0 0 0 0 0 0 0 0 0 0 0 0 0 3 7 8 6 4 2 2 1 0 0 0 0 0 1 1 2 1 0 0
0 0 0 0 0 0 0 0 0 0 0 0 0 0 0 0 0 0 0 0 0 0 0 0 0 2 5 5 4 3 2 2 1 0 0 0 0 0 0 0 0 0 0 0
0 0 0 0 0 0 0 0 0 0 0 0 0 0 0 0 0 0 0 0 0 0 0 0 1 1 1 2 2 2 1 1 0 0 0 0 0 0 0 0 0 0 0 0
0 0 0 0 0 0 0 0 0 0 0 0 0 0 0 0 0 0 0 0 0 0 0 0 1 1 1 1 2 1 0 0 0 0 0 0 0 0 0 0 0 0 0 0
0 0 0 0 0 0 0 0 0 0 0 0 0 0 0 0 0 0 0 0 0 0 0 0 1 1 1 1 1 0 0 0 0 0 0 0 0 0 0 0 0 0 0 0
Wind_Speed
9 9 7 6 6 10 12 13 13 9 4 2 6 11 10 6 4 3 3 3 3 3 6 5 6 8 9 9 8 6 6 4 2 2 1 1 1 1 1 1 3 2 1 2
7 4 6 7 7 8 10 11 12 9 6 6 9 12 13 9 7 4 4 3 3 6 8 8 7 8 8 8 7 6 6 4 3 3 1 1 0 1 1 0 2 2 1 1
4 2 3 6 7 9 9 9 9 10 9 9 14 15 13 10 5 4 5 4 2 6 8 8 7 7 7 7 5 4 4 3 2 2 1 1 1 2 2 1 1 2 1 1
4 1 3 6 7 8 8 8 9 10 12 12 14 12 8 5 5 4 5 6 6 5 8 7 6 6 5 5 4 4 3 2 1 1 2 3 3 3 3 2 1 1 2 3
7 7 6 6 6 8 9 10 11 13 14 16 14 12 3 6 6 6 8 9 10 7 8 8 8 7 6 6 5 4 3 2 1 1 3 3 4 4 4 3 3 2 3 5
10 8 7 6 6 8 10 12 13 12 10 12 13 12 5 5 8 9 10 8 8 8 9 9 9 8 8 9 9 8 6 5 4 4 4 4 6 6 7 6 6 5 4 4
9 6 5 5 7 6 8 11 8 6 3 5 7 10 2 7 8 12 12 10 10 9 7 8 9 8 8 8 8 8 8 7 6 6 6 6 6 6 7 6 6 6 6 5
7 4 6 4 6 8 8 10 9 11 10 6 8 3 5 9 10 10 11 10 10 8 7 8 8 8 7 8 8 8 7 6 6 7 6 6 6 5 5 6 6 7 6 6
7 6 6 6 7 8 8 8 11 12 14 13 3 5 5 5 7 6 7 9 9 8 7 6 7 7 6 6 6 6 6 6 6 6 7 5 6 6 7 7 7 6 6 8
8 12 11 9 10 7 6 9 7 7 9 12 12 4 2 5 5 4 4 7 7 6 6 6 6 6 6 6 5 5 5 5 5 6 6 7 6 6 6 7 8 8 8 8
12 12 13 10 7 10 9 9 8 7 9 11 13 6 7 6 4 4 6 7 7 8 8 7 7 7 7 8 7 6 6 6 5 5 5 6 5 6 6 5 6 7 8 8
11 11 11 13 10 8 8 8 7 7 8 9 11 4 8 8 6 6 7 7 8 9 9 8 8 8 8 9 9 8 8 7 6 6 6 6 6 6 6 7 7 7 7 8
9 7 11 9 4 3 7 9 8 6 7 9 9 3 6 7 7 7 8 8 8 9 10 10 9 8 8 9 9 10 9 9 8 8 7 7 7 7 7 7 8 8 8 8
4 7 11 14 15 15 11 10 7 7 7 9 10 5 6 6 7 8 8 9 11 11 11 10 8 8 8 8 9 10 10 10 9 8 8 8 8 8 8 9 8 8 8 8
6 9 12 15 17 16 12 10 10 9 10 10 11 8 7 7 9 10 11 12 14 14 13 10 8 8 8 8 8 9 9 8 8 8 8 8 8 8 8 9 9 9 9 10
8 9 13 16 15 11 8 13 13 12 13 13 13 9 8 10 11 12 14 16 17 15 12 11 11 11 10 9 9 9 8 8 8 8 9 9 9 9 8 8 8 8 8 8
9 11 13 14 14 10 8 12 12 12 12 13 14 12 12 14 15 16 18 19 15 14 15 15 14 11 9 10 8 9 8 8 8 9 9 9 9 10 9 10 9 8 8 7
6 8 7 12 12 6 8 10 11 12 13 13 11 13 15 17 18 18 18 14 16 19 18 16 15 13 12 11 9 8 10 9 9 9 10 9 9 9 8 7 7 7 7 7
4 5 8 8 11 3 7 10 12 14 14 12 13 16 19 20 21 17 16 19 19 19 17 14 15 16 12 12 10 10 11 11 11 11 10 9 9 9 8 8 7 7 7 8
8 6 7 9 11 8 8 13 15 14 7 14 18 20 21 22 18 15 19 21 19 17 16 15 16 16 12 9 9 11 13 12 12 12 10 10 9 9 9 9 8 8 7 8
10 10 8 10 11 6 10 16 17 12 13 18 19 20 21 20 18 20 21 20 19 17 17 15 15 13 11 10 10 12 13 12 12 11 10 10 9 9 9 9 8 7 8 9
8 8 9 9 9 7 14 14 12 12 14 17 19 20 20 21 21 21 21 19 19 19 19 18 14 12 10 10 11 12 13 12 12 11 11 11 10 12 12 8 7 7 7 8
6 7 6 6 7 8 12 12 13 14 17 17 19 21 21 23 23 23 21 19 18 18 16 16 16 14 12 11 11 14 13 12 12 12 12 11 11 10 10 9 9 8 7 7
6 3 6 7 9 13 14 15 16 17 17 19 20 21 22 23 23 23 21 19 18 17 16 16 17 17 15 14 14 14 14 14 14 13 11 10 10 10 9 7 7 6 6 6
4 6 8 9 12 14 14 16 18 18 19 20 20 21 22 23 23 22 19 18 17 17 16 15 15 16 16 15 15 15 14 13 13 12 11 10 10 9 8 7 6 6 5 5
7 7 7 9 12 13 16 18 19 19 20 20 21 22 22 21 22 22 20 18 17 17 17 17 17 17 17 16 16 14 13 12 11 11 10 8 7 7 7 7 6 6 8 8
Wind_Direction
243 245 267 303 300 307 310 310 310 311 355 316 285 287 282 269 248 220 151 149 163 156 117 112 108 116 115 115 119 123 125 126 135 125 163 198 163 277 308 113 102 85 4 6
254 273 342 349 323 298 284 282 287 288 284 279 273 267 266 252 222 184 145 137 137 120 104 97 94 93 101 109 115 125 137 147 161 131 142 174 298 267 242 124 135 143 81 353
305 53 321 288 282 285 289 298 309 317 315 285 272 260 250 239 195 121 91 67 63 120 119 111 104 100 107 107 113 120 115 135 159 126 233 246 215 262 272 244 172 144 146 260
308 299 286 293 299 304 312 329 318 303 293 284 282 280 255 193 130 92 73 75 62 52 83 85 96 94 92 107 113 103 110 114 93 58 311 310 290 288 285 265 238 176 221 238
302 301 292 299 315 314 315 316 302 292 287 281 279 276 258 145 133 103 71 68 73 59 62 71 60 51 52 52 52 52 76 81 36 349 317 303 293 294 298 310 311 283 258 234
281 280 287 305 302 295 303 298 288 288 296 292 312 303 246 152 140 125 104 92 85 76 64 56 57 46 33 34 37 31 32 29 13 350 335 323 313 312 310 309 304 296 276 250
290 312 295 276 298 320 313 299 299 313 316 272 279 283 297 106 106 113 118 112 96 83 71 61 49 48 38 35 36 33 33 22 11 0 356 340 326 313 300 297 296 291 287 279
332 340 291 301 321 312 301 296 299 307 302 282 229 240 58 59 71 84 99 101 98 92 75 62 52 44 36 34 30 25 25 16 8 2 355 338 333 328 322 318 311 302 296 297
312 308 300 317 298 293 305 308 313 306 303 307 315 106 98 63 64 63 75 82 80 75 70 61 54 41 24 29 30 22 17 9 0 353 343 330 346 342 332 324 314 306 307 303
311 312 313 304 287 279 286 303 306 310 315 313 320 35 132 163 158 132 86 72 60 54 49 41 34 28 17 8 19 11 0 351 341 335 330 331 337 326 323 321 319 316 312 309
322 311 305 312 316 313 307 310 320 312 311 316 316 8 62 97 91 81 69 57 40 23 20 15 9 4 355 348 350 349 342 332 325 319 313 313 311 312 314 312 315 317 313 309
340 326 320 313 314 325 319 308 304 307 314 309 306 34 46 55 53 44 38 34 23 3 350 346 345 341 334 334 331 328 323 315 310 306 302 299 301 303 303 303 303 300 300 302
345 322 307 308 328 309 283 284 292 302 299 301 316 19 61 56 42 31 18 4 350 337 331 328 325 322 320 317 313 309 305 300 297 295 290 289 291 293 292 289 288 289 290 293
284 284 290 300 306 308 301 304 325 338 324 325 348 31 38 27 8 358 351 337 326 318 314 310 308 304 299 291 287 286 287 287 286 284 284 282 281 281 282 282 279 279 282 285
323 310 316 309 305 310 320 345 0 5 359 346 351 9 28 13 349 339 332 323 315 310 307 307 303 294 289 290 287 287 288 290 291 288 284 280 276 274 275 278 280 279 277 282
330 319 314 306 308 317 18 23 17 15 5 349 338 347 14 353 339 331 327 321 314 316 324 324 316 308 302 298 297 295 291 287 282 281 283 284 282 280 278 279 280 281 281 284
342 341 322 308 312 312 47 25 14 4 355 344 335 346 354 339 332 329 324 315 325 336 329 319 314 310 305 303 295 290 291 287 285 283 281 279 279 279 278 284 290 290 293 294
344 334 310 305 321 7 64 31 12 350 340 349 359 355 341 329 327 322 316 334 340 329 322 319 315 312 306 304 300 296 297 292 288 283 282 283 282 283 284 284 285 289 291 289
13 337 313 320 337 61 78 29 3 339 329 27 359 340 332 331 320 314 336 340 325 318 316 314 311 309 305 301 297 295 293 290 287 286 283 283 283 285 286 286 286 288 286 285
0 329 310 332 331 359 41 9 350 322 314 16 347 336 332 327 319 322 329 320 316 317 314 311 309 306 301 297 297 294 293 291 289 290 287 284 282 282 283 282 280 282 282 280
347 339 350 342 328 59 19 358 349 338 339 340 332 330 326 323 315 314 318 319 318 315 314 312 310 308 306 305 301 296 293 291 289 287 284 281 277 276 273 269 266 270 274 277
356 357 360 343 337 16 9 357 356 334 330 329 328 326 322 317 315 316 316 316 316 315 315 315 310 304 301 302 301 296 292 291 290 288 286 284 280 280 281 274 271 270 271 275
43 38 340 345 331 355 359 346 349 343 332 329 326 324 321 318 317 317 317 317 317 317 317 317 314 311 309 307 303 298 296 294 291 288 286 285 284 279 276 272 272 270 266 265
89 35 340 332 334 353 345 347 345 337 331 327 324 322 321 319 319 318 319 320 321 321 320 319 317 313 310 309 305 298 297 296 292 288 286 284 283 280 277 271 269 267 267 266
358 2 343 326 349 338 337 341 335 332 330 325 324 323 322 321 320 323 323 323 323 322 322 320 315 310 306 304 299 298 295 295 295 293 288 286 282 278 274 270 262 264 260 258
35 29 353 334 343 331 328 332 333 331 328 327 326 325 326 326 326 327 325 325 325 324 321 317 315 312 308 306 302 298 294 292 289 287 284 281 278 276 274 272 273 256 246 247